Soyuz MS-27

operational
NORAD ID: 63520 Int'l Des: 2025-072 Owner: RKKE Country: RU
LEOCIRCULAR

About Soyuz MS-27

Description loading...

Live Position

Loading 3D Globe...

Upcoming Passes

Altitude History

Altitude vs Time

uPlot chart will show altitude changes over time

Two-Line Element Set

1 63520U 25072A 25315.25818480 .00012468 00000-0 22984-3 0 9993
2 63520 51.6338 298.3179 0004133 57.8977 302.2413 15.49525392 20201
Epoch: Nov 11, 2025 • Age: 14 hours

Current Status

Altitude 416.8 km
Velocity 7.67 km/s
Sub-Earth Point 28.41°N, 34.91°W
Launch Date Apr 8, 2025
Age 0.5 years
Type other

Technical Details

Classification Payload
Mass 2900.00 kg
Dry Mass 2900.00 kg
Total Mass 7152.00 kg
Length 7.90 m
Diameter 2.70 m
Span 10.60 m
Shape Cyl + Cone + Sphere + 2 Pan
Manufacturer RKKE
Bus Type 7K-S A48
Phase Status Docked
Owner/State RKKE/RU

Large Constellations

Loading constellations...